Location: New Plymouth
(39.0670°S, 174.0830°E)
Time: 19:43:46
(UTC+13:00)

Cosmos 1745 Rocket - Pass Details

Date: 24 January 2019
Orbit: 954 x 997 km, 83.0° (Epoch: 19 February)

Event Time Altitude Azimuth Distance (km) Brightness Sun altitude
Exits shadow 23:05:13 26° 350° (N) 1,841 5.1 -21.9°
Maximum altitude 23:09:01 83° 264° (W) 1,015 4.0 -22.4°
Drops below altitude 10° 23:15:26 10° 175° (S) 2,779 7.0 -23.1°
Sets 23:17:58 0° 173° (S) 3,729 7.8 -23.4°
